Location: Melbourne
(37.8170°S, 144.9670°E)
Time: 20:32:00
(UTC+10:00)

deb Explorer IX - All Passes

Search period start: 30 June 2016 00:00
Search period end: 10 July 2016 00:00
Orbit: 550 x 1131 km, 38.8° (Epoch: 29 June)

Date Brightness Start Highest point End Pass type
(mag) Time Alt. Az. Time Alt. Az. Time Alt. Az.
30 Jun - 09:28:38 10° NW 09:32:33 39° NNE 09:36:29 10° E daylight
30 Jun - 11:15:20 10° W 11:19:31 84° S 11:23:59 10° E daylight
30 Jun - 13:02:26 10° W 13:06:47 89° SSE 13:11:42 10° E daylight
30 Jun - 14:49:31 10° W 14:53:54 40° NNW 14:58:56 10° NE daylight
30 Jun - 16:38:58 10° NW 16:40:46 12° NW 16:42:40 10° NNW daylight
01 Jul - 07:28:16 10° NNE 07:28:45 10° NE 07:29:15 10° NE daylight
01 Jul - 09:11:18 10° NW 09:15:19 43° NNE 09:19:17 10° E daylight
01 Jul - 10:58:09 10° W 11:02:19 82° S 11:06:42 10° E daylight
01 Jul - 12:45:17 10° W 12:49:34 89° N 12:54:21 10° ENE daylight
01 Jul - 14:32:25 10° W 14:36:38 37° NNW 14:41:25 10° NE daylight
02 Jul - 07:09:52 10° NNE 07:11:29 12° NE 07:13:03 10° ENE visible
02 Jul - 08:53:59 10° NW 08:58:06 46° NNE 09:02:06 10° E daylight
02 Jul - 10:40:57 10° W 10:45:07 81° S 10:49:26 10° E daylight
02 Jul - 12:28:07 10° W 12:32:21 86° NNW 12:37:01 10° ENE daylight
02 Jul - 14:15:19 10° W 14:19:22 33° NNW 14:23:54 10° NE daylight
03 Jul - 06:51:57 10° N 06:54:11 14° NE 06:56:21 10° ENE visible
03 Jul - 08:36:39 10° NW 08:40:52 50° NNE 08:44:54 10° E daylight
03 Jul - 10:23:44 10° W 10:27:56 79° S 10:32:11 10° E daylight
03 Jul - 12:10:56 10° W 12:15:08 83° NNW 12:19:41 10° ENE daylight
03 Jul - 13:58:13 10° W 14:02:06 30° NNW 14:06:22 10° NNE daylight
04 Jul - 06:34:09 10° N 06:36:54 15° NNE 06:39:30 10° ENE visible
04 Jul - 08:19:18 10° WNW 08:23:39 54° NNE 08:27:43 10° E daylight
04 Jul - 10:06:31 10° W 10:10:44 78° S 10:14:57 10° E daylight
04 Jul - 11:53:45 10° W 11:57:55 79° NNW 12:02:22 10° ENE daylight
04 Jul - 13:41:09 10° W 13:44:50 27° NNW 13:48:51 10° NNE daylight
05 Jul - 06:16:25 10° N 06:19:37 17° NNE 06:22:36 10° ENE visible
05 Jul - 08:01:56 10° WNW 08:06:25 58° NNE 08:10:33 10° E daylight
05 Jul - 09:49:16 10° W 09:53:31 77° S 09:57:43 10° E daylight
05 Jul - 11:36:33 10° W 11:40:42 75° NNW 11:45:03 10° ENE daylight
05 Jul - 13:24:03 10° W 13:27:33 24° NNW 13:31:19 10° NNE daylight
06 Jul - 05:58:44 10° NNW 06:02:19 20° NNE 06:05:37 10° ENE visible
06 Jul - 07:44:34 10° WNW 07:49:11 63° NNE 07:53:22 10° E daylight
06 Jul - 09:32:01 10° W 09:36:19 77° S 09:40:30 10° E daylight
06 Jul - 11:19:20 10° W 11:23:29 71° NNW 11:27:46 10° ENE daylight
06 Jul - 13:07:00 10° W 13:10:17 22° NNW 13:13:47 10° NNE daylight
07 Jul - 05:41:04 10° NNW 05:45:02 22° NNE 05:48:37 10° E visible
07 Jul - 07:27:11 10° WNW 07:31:57 67° NNE 07:36:12 10° E daylight
07 Jul - 09:14:43 10° W 09:19:08 77° S 09:23:17 10° E daylight
07 Jul - 11:02:07 10° W 11:06:16 67° NNW 11:10:28 10° ENE daylight
07 Jul - 12:49:56 10° WNW 12:53:01 20° NNW 12:56:14 10° NNE daylight
08 Jul - 05:23:25 10° NNW 05:27:43 25° NNE 05:31:34 10° E visible
08 Jul - 07:09:48 10° WNW 07:14:42 71° NNE 07:19:02 10° E daylight
08 Jul - 08:57:25 10° W 09:01:55 77° S 09:06:06 10° E daylight
08 Jul - 10:44:52 10° W 10:49:03 63° NNW 10:53:11 10° ENE daylight
08 Jul - 12:32:54 10° WNW 12:35:44 18° NNW 12:38:40 10° N daylight
09 Jul - 05:05:47 10° NNW 05:10:25 28° NNE 05:14:30 10° E visible
09 Jul - 06:52:23 10° WNW 06:57:26 75° NNE 07:01:51 10° E visible
09 Jul - 08:40:07 10° W 08:44:42 77° S 08:48:54 10° E daylight
09 Jul - 10:27:37 10° W 10:31:49 59° NNW 10:35:55 10° ENE daylight
09 Jul - 12:15:53 10° WNW 12:18:27 16° NNW 12:21:04 10° N daylight
